Date,TemperatureHighF,TemperatureAvgF,TemperatureLowF,DewpointHighF,DewpointAvgF,DewpointLowF,HumidityHigh,HumidityAvg,HumidityLow,PressureMaxIn,PressureMinIn,WindSpeedMaxMPH,WindSpeedAvgMPH,GustSpeedMaxMPH,PrecipitationSumIn
2013-10-1,84.5,78.9,0.0,99.9,73.6,70.4,92,83,71,30.00,29.91,13,2,13,0.60
2013-10-2,79.8,76.6,72.2,75.8,73.2,70.4,95,89,79,30.03,29.91,15,2,15,1.37
2013-10-3,91.1,82.8,76.5,78.3,75.6,72.7,91,80,63,30.03,29.88,9,1,9,0.00
2013-10-4,90.9,83.0,78.5,77.8,75.8,74.5,90,80,61,30.00,29.94,12,2,12,0.00
2013-10-5,88.6,81.6,77.0,76.6,75.2,73.5,90,81,67,30.00,29.91,8,2,8,0.00
2013-10-6,90.8,81.2,76.1,77.3,75.2,73.2,92,83,59,30.00,29.88,7,1,7,0.32
2013-10-7,90.0,82.0,75.5,77.2,74.0,71.3,93,78,57,30.03,29.91,8,1,8,0.01
2013-10-8,90.5,81.6,0.0,99.9,74.2,71.9,92,78,61,30.03,29.91,7,1,7,0.08
2013-10-9,87.6,82.0,76.9,77.0,74.6,73.2,92,79,66,30.03,29.91,13,3,13,0.07
2013-10-10,87.3,82.4,0.0,99.9,75.2,73.2,89,78,68,30.00,29.91,12,3,12,0.00
2013-10-11,87.8,82.0,75.8,76.0,74.0,72.1,90,77,64,30.00,29.88,12,3,12,0.00
2013-10-12,88.1,82.1,0.0,99.9,73.4,69.6,87,74,59,30.00,29.91,12,3,12,0.00
2013-10-13,87.4,81.6,75.2,75.3,73.6,69.6,89,77,63,30.00,29.88,14,3,14,0.02
2013-10-14,87.5,80.9,77.2,76.1,73.7,70.0,89,79,64,29.97,29.85,9,1,10,0.07
2013-10-15,90.8,80.7,74.3,76.3,73.7,-2.2,93,80,57,29.97,29.85,60,1,60,0.01
2013-10-16,88.5,81.4,76.0,75.5,73.3,69.9,92,77,58,29.97,29.88,9,2,9,0.00
2013-10-17,85.0,71.4,0.0,99.9,66.4,-42.8,86,75,2,29.94,29.85,59,3,59,0.00
2013-10-18,90.6,81.0,73.3,74.6,72.3,68.9,90,76,55,29.97,29.85,8,1,8,0.00
2013-10-19,91.9,83.0,77.0,77.3,74.8,72.8,91,77,60,30.00,29.85,10,1,10,0.00
2013-10-20,91.5,82.5,75.3,78.2,74.4,71.5,92,78,60,29.97,29.88,8,1,8,0.15
2013-10-21,91.5,82.6,75.8,76.8,74.6,72.0,93,78,59,30.00,29.88,8,1,8,0.01
2013-10-22,91.1,83.0,76.9,76.9,74.9,73.0,89,77,60,29.97,29.85,7,1,7,0.00
2013-10-23,92.0,83.3,76.9,77.7,75.0,73.0,92,77,59,29.94,29.85,7,1,7,0.00
2013-10-24,92.1,82.8,77.0,77.5,74.9,71.7,90,78,59,30.00,29.88,12,2,12,0.01
2013-10-25,86.7,81.0,76.5,77.6,75.3,72.0,91,83,70,30.03,29.94,13,3,13,0.16
2013-10-26,89.8,81.7,77.3,77.3,74.3,70.9,87,79,63,30.03,29.91,13,3,13,0.00
2013-10-27,89.4,80.8,74.0,76.8,74.4,71.2,94,81,63,30.00,29.91,14,2,14,0.34
2013-10-28,91.3,82.9,79.3,77.8,75.0,72.0,86,78,61,30.03,29.91,14,2,14,0.00
2013-10-29,87.8,82.6,78.0,77.0,74.6,72.7,88,77,64,30.06,29.94,16,4,16,0.00
2013-10-30,87.6,82.4,77.8,75.8,74.2,72.7,91,77,64,30.03,29.91,15,5,15,0.06
2013-10-31,90.0,82.5,78.6,99.9,79.4,73.2,88,67,66,30.00,29.88,14,2,14,0.10